Year,Month,Day,Hour,Minute,Value (Times are PST for temperature in C)
2007,06,19,00,00,7.10
2007,06,19,00,01,7.10
2007,06,19,00,02,7.10
2007,06,19,00,03,7.10
2007,06,19,00,04,7.10
2007,06,19,00,05,7.10
2007,06,19,00,06,7.10
2007,06,19,00,07,7.10
2007,06,19,00,08,7.00
2007,06,19,00,09,7.00
2007,06,19,00,10,7.00
2007,06,19,00,11,7.00
2007,06,19,00,12,7.00
2007,06,19,00,13,7.00
2007,06,19,00,14,6.90
2007,06,19,00,15,6.90
2007,06,19,00,16,6.90
2007,06,19,00,17,6.90
2007,06,19,00,18,6.90
2007,06,19,00,19,6.90
2007,06,19,00,20,6.90
2007,06,19,00,21,6.90
2007,06,19,00,22,6.90
2007,06,19,00,23,6.90
2007,06,19,00,24,6.90
2007,06,19,00,25,6.80
2007,06,19,00,26,6.80
2007,06,19,00,27,6.80
2007,06,19,00,28,6.80
2007,06,19,00,29,6.80
2007,06,19,00,30,6.80
2007,06,19,00,31,6.80
2007,06,19,00,32,6.80
2007,06,19,00,33,6.80
2007,06,19,00,34,6.80
2007,06,19,00,35,6.80
2007,06,19,00,36,6.80
2007,06,19,00,37,6.80
2007,06,19,00,38,6.80
2007,06,19,00,39,6.80
2007,06,19,00,40,6.80
2007,06,19,00,41,6.70
2007,06,19,00,42,6.70
2007,06,19,00,43,6.70
2007,06,19,00,44,6.70
2007,06,19,00,45,6.70
2007,06,19,00,46,6.70
2007,06,19,00,47,6.70
2007,06,19,00,48,6.60
2007,06,19,00,49,6.60
2007,06,19,00,50,6.60
2007,06,19,00,51,6.60
2007,06,19,00,52,6.60
2007,06,19,00,53,6.60
2007,06,19,00,54,6.50
2007,06,19,00,55,6.50
2007,06,19,00,56,6.50
2007,06,19,00,57,6.50
2007,06,19,00,58,6.40
2007,06,19,00,59,6.40
2007,06,19,01,00,6.40
2007,06,19,01,01,6.40
2007,06,19,01,02,6.40
2007,06,19,01,03,6.40
2007,06,19,01,04,6.40
2007,06,19,01,05,6.40
2007,06,19,01,06,6.30
2007,06,19,01,07,6.30
2007,06,19,01,08,6.30
2007,06,19,01,09,6.30
2007,06,19,01,10,6.30
2007,06,19,01,11,6.30
2007,06,19,01,12,6.30
2007,06,19,01,13,6.30
2007,06,19,01,14,6.30
2007,06,19,01,15,6.20
2007,06,19,01,16,6.20
2007,06,19,01,17,6.20
2007,06,19,01,18,6.20
2007,06,19,01,19,6.20
2007,06,19,01,20,6.20
2007,06,19,01,21,6.20
2007,06,19,01,22,6.20
2007,06,19,01,23,6.20
2007,06,19,01,24,6.20
2007,06,19,01,25,6.20
2007,06,19,01,26,6.10
2007,06,19,01,27,6.10
2007,06,19,01,28,6.10
2007,06,19,01,29,6.10
2007,06,19,01,30,6.10
2007,06,19,01,31,6.10
2007,06,19,01,32,6.10
2007,06,19,01,33,6.10
2007,06,19,01,34,6.00
2007,06,19,01,35,6.00
2007,06,19,01,36,6.00
2007,06,19,01,37,6.00
2007,06,19,01,38,5.90
2007,06,19,01,39,5.90
2007,06,19,01,40,5.90
2007,06,19,01,41,5.90
2007,06,19,01,42,5.90
2007,06,19,01,43,5.90
2007,06,19,01,44,5.90
2007,06,19,01,45,5.90
2007,06,19,01,46,5.90
2007,06,19,01,47,5.90
2007,06,19,01,48,5.80
2007,06,19,01,49,5.80
2007,06,19,01,50,5.80
2007,06,19,01,51,5.80
2007,06,19,01,52,5.80
2007,06,19,01,53,5.80
2007,06,19,01,54,5.80
2007,06,19,01,55,5.80
2007,06,19,01,56,5.80
2007,06,19,01,57,5.70
2007,06,19,01,58,5.70
2007,06,19,01,59,5.70
2007,06,19,02,00,5.70
2007,06,19,02,01,5.70
2007,06,19,02,02,5.70
2007,06,19,02,03,5.70
2007,06,19,02,04,5.70
2007,06,19,02,05,5.70
2007,06,19,02,06,5.60
2007,06,19,02,07,5.60
2007,06,19,02,08,5.60
2007,06,19,02,09,5.60
2007,06,19,02,10,5.60
2007,06,19,02,11,5.60
2007,06,19,02,12,5.60
2007,06,19,02,13,5.60
2007,06,19,02,14,5.50
2007,06,19,02,15,5.50
2007,06,19,02,16,5.50
2007,06,19,02,17,5.50
2007,06,19,02,18,5.50
2007,06,19,02,19,5.50
2007,06,19,02,20,5.50
2007,06,19,02,21,5.50
2007,06,19,02,22,5.40
2007,06,19,02,23,5.40
2007,06,19,02,24,5.40
2007,06,19,02,25,5.40
2007,06,19,02,26,5.40
2007,06,19,02,27,5.40
2007,06,19,02,28,5.40
2007,06,19,02,29,5.40
2007,06,19,02,30,5.40
2007,06,19,02,31,5.40
2007,06,19,02,32,5.40
2007,06,19,02,33,5.40
2007,06,19,02,34,5.40
2007,06,19,02,35,5.40
2007,06,19,02,36,5.40
2007,06,19,02,37,5.40
2007,06,19,02,38,5.40
2007,06,19,02,39,5.40
2007,06,19,02,40,5.40
2007,06,19,02,41,5.40
2007,06,19,02,42,5.40
2007,06,19,02,43,5.40
2007,06,19,02,44,5.40
2007,06,19,02,45,5.40
2007,06,19,02,46,5.40
2007,06,19,02,47,5.40
2007,06,19,02,48,5.40
2007,06,19,02,49,5.40
2007,06,19,02,50,5.40
2007,06,19,02,51,5.40
2007,06,19,02,52,5.40
2007,06,19,02,53,5.50
2007,06,19,02,54,5.50
2007,06,19,02,55,5.50
2007,06,19,02,56,5.50
2007,06,19,02,57,5.50
2007,06,19,02,58,5.50
2007,06,19,02,59,5.50
2007,06,19,03,00,5.50
2007,06,19,03,01,5.50
2007,06,19,03,02,5.50
2007,06,19,03,03,5.60
2007,06,19,03,04,5.60
2007,06,19,03,05,5.60
2007,06,19,03,06,5.60
2007,06,19,03,07,5.60
2007,06,19,03,08,5.60
2007,06,19,03,09,5.60
2007,06,19,03,10,5.60
2007,06,19,03,11,5.60
2007,06,19,03,12,5.60
2007,06,19,03,13,5.60
2007,06,19,03,14,5.60
2007,06,19,03,15,5.60
2007,06,19,03,16,5.60
2007,06,19,03,17,5.60
2007,06,19,03,18,5.60
2007,06,19,03,19,5.60
2007,06,19,03,20,5.60
2007,06,19,03,21,5.60
2007,06,19,03,22,5.70
2007,06,19,03,23,5.70
2007,06,19,03,24,5.70
2007,06,19,03,25,5.70
2007,06,19,03,26,5.70
2007,06,19,03,27,5.70
2007,06,19,03,28,5.70
2007,06,19,03,29,5.70
2007,06,19,03,30,5.70
2007,06,19,03,31,5.70
2007,06,19,03,32,5.70
2007,06,19,03,33,5.70
2007,06,19,03,34,5.70
2007,06,19,03,35,5.70
2007,06,19,03,36,5.80
2007,06,19,03,37,5.80
2007,06,19,03,38,5.80
2007,06,19,03,39,5.80
2007,06,19,03,40,5.80
2007,06,19,03,41,5.80
2007,06,19,03,42,5.80
2007,06,19,03,43,5.80
2007,06,19,03,44,5.80
2007,06,19,03,45,5.80
2007,06,19,03,46,5.80
2007,06,19,03,47,5.80
2007,06,19,03,48,5.80
2007,06,19,03,49,5.80
2007,06,19,03,50,5.80
2007,06,19,03,51,5.80
2007,06,19,03,52,5.80
2007,06,19,03,53,5.80
2007,06,19,03,54,5.80
2007,06,19,03,55,5.90
2007,06,19,03,56,5.90
2007,06,19,03,57,5.90
2007,06,19,03,58,5.90
2007,06,19,03,59,5.90
2007,06,19,04,00,5.90
2007,06,19,04,01,5.90
2007,06,19,04,02,5.90
2007,06,19,04,03,5.90
2007,06,19,04,04,5.90
2007,06,19,04,05,5.90
2007,06,19,04,06,5.90
2007,06,19,04,07,6.00
2007,06,19,04,08,6.00
2007,06,19,04,09,6.00
2007,06,19,04,10,6.10
2007,06,19,04,11,6.10
2007,06,19,04,12,6.10
2007,06,19,04,13,6.10
2007,06,19,04,14,6.10
2007,06,19,04,15,6.10
2007,06,19,04,16,6.10
2007,06,19,04,17,6.10
2007,06,19,04,18,6.10
2007,06,19,04,19,6.20
2007,06,19,04,20,6.20
2007,06,19,04,21,6.20
2007,06,19,04,22,6.20
2007,06,19,04,23,6.20
2007,06,19,04,24,6.20
2007,06,19,04,25,6.20
2007,06,19,04,26,6.20
2007,06,19,04,27,6.20
2007,06,19,04,28,6.20
2007,06,19,04,29,6.20
2007,06,19,04,30,6.20
2007,06,19,04,31,6.20
2007,06,19,04,32,6.20
2007,06,19,04,33,6.20
2007,06,19,04,34,6.20
2007,06,19,04,35,6.20
2007,06,19,04,36,6.20
2007,06,19,04,37,6.20
2007,06,19,04,38,6.20
2007,06,19,04,39,6.10
2007,06,19,04,40,6.10
2007,06,19,04,41,6.10
2007,06,19,04,42,6.10
2007,06,19,04,43,6.10
2007,06,19,04,44,6.10
2007,06,19,04,45,6.10
2007,06,19,04,46,6.10
2007,06,19,04,47,6.00
2007,06,19,04,48,6.00
2007,06,19,04,49,6.00
2007,06,19,04,50,6.00
2007,06,19,04,51,6.00
2007,06,19,04,52,5.90
2007,06,19,04,53,5.90
2007,06,19,04,54,5.90
2007,06,19,04,55,5.90
2007,06,19,04,56,5.90
2007,06,19,04,57,5.80
2007,06,19,04,58,5.80
2007,06,19,04,59,5.80
2007,06,19,05,00,5.80
2007,06,19,05,01,5.80
2007,06,19,05,02,5.80
2007,06,19,05,03,5.70
2007,06,19,05,04,5.70
2007,06,19,05,05,5.70
2007,06,19,05,06,5.70
2007,06,19,05,07,5.70
2007,06,19,05,08,5.70
2007,06,19,05,09,5.60
2007,06,19,05,10,5.60
2007,06,19,05,11,5.60
2007,06,19,05,12,5.60
2007,06,19,05,13,5.50
2007,06,19,05,14,5.50
2007,06,19,05,15,5.50
2007,06,19,05,16,5.40
2007,06,19,05,17,5.40
2007,06,19,05,18,5.40
2007,06,19,05,19,5.40
2007,06,19,05,20,5.30
2007,06,19,05,21,5.30
2007,06,19,05,22,5.30
2007,06,19,05,23,5.30
2007,06,19,05,24,5.30
2007,06,19,05,25,5.30
2007,06,19,05,26,5.20
2007,06,19,05,27,5.20
2007,06,19,05,28,5.20
2007,06,19,05,29,5.20
2007,06,19,05,30,5.20
2007,06,19,05,31,5.20
2007,06,19,05,32,5.20
2007,06,19,05,33,5.20
2007,06,19,05,34,5.20
2007,06,19,05,35,5.20
2007,06,19,05,36,5.20
2007,06,19,05,37,5.10
2007,06,19,05,38,5.10
2007,06,19,05,39,5.10
2007,06,19,05,40,5.10
2007,06,19,05,41,5.10
2007,06,19,05,42,5.10
2007,06,19,05,43,5.10
2007,06,19,05,44,5.10
2007,06,19,05,45,5.10
2007,06,19,05,46,5.10
2007,06,19,05,47,5.10
2007,06,19,05,48,5.10
2007,06,19,05,49,5.10
2007,06,19,05,50,5.10
2007,06,19,05,51,5.10
2007,06,19,05,52,5.10
2007,06,19,05,53,5.10
2007,06,19,05,54,5.10
2007,06,19,05,55,5.10
2007,06,19,05,56,5.10
2007,06,19,05,57,5.10
2007,06,19,05,58,5.10
2007,06,19,05,59,5.10
2007,06,19,06,00,5.10
2007,06,19,06,01,5.10
2007,06,19,06,02,5.10
2007,06,19,06,03,5.10
2007,06,19,06,04,5.10
2007,06,19,06,05,5.10
2007,06,19,06,06,5.00
2007,06,19,06,07,5.00
2007,06,19,06,08,5.00
2007,06,19,06,09,5.00
2007,06,19,06,10,5.00
2007,06,19,06,11,5.00
2007,06,19,06,12,5.00
2007,06,19,06,13,5.00
2007,06,19,06,14,5.10
2007,06,19,06,15,5.10
2007,06,19,06,16,5.10
2007,06,19,06,17,5.10
2007,06,19,06,18,5.10
2007,06,19,06,19,5.10
2007,06,19,06,20,5.10
2007,06,19,06,21,5.10
2007,06,19,06,22,5.10
2007,06,19,06,23,5.10
2007,06,19,06,24,5.10
2007,06,19,06,25,5.10
2007,06,19,06,26,5.10
2007,06,19,06,27,5.20
2007,06,19,06,28,5.20
2007,06,19,06,29,5.20
2007,06,19,06,30,5.20
2007,06,19,06,31,5.20
2007,06,19,06,32,5.20
2007,06,19,06,33,5.20
2007,06,19,06,34,5.20
2007,06,19,06,35,5.30
2007,06,19,06,36,5.30
2007,06,19,06,37,5.30
2007,06,19,06,38,5.30
2007,06,19,06,39,5.30
2007,06,19,06,40,5.30
2007,06,19,06,41,5.30
2007,06,19,06,42,5.40
2007,06,19,06,43,5.40
2007,06,19,06,44,5.40
2007,06,19,06,45,5.40
2007,06,19,06,46,5.40
2007,06,19,06,47,5.50
2007,06,19,06,48,5.50
2007,06,19,06,49,5.50
2007,06,19,06,50,5.60
2007,06,19,06,51,5.60
2007,06,19,06,52,5.60
2007,06,19,06,53,5.70
2007,06,19,06,54,5.70
2007,06,19,06,55,5.70
2007,06,19,06,56,5.80
2007,06,19,06,57,5.80
2007,06,19,06,58,5.90
2007,06,19,06,59,5.90
2007,06,19,07,00,5.90
2007,06,19,07,01,6.00
2007,06,19,07,02,6.00
2007,06,19,07,03,6.10
2007,06,19,07,04,6.10
2007,06,19,07,05,6.20
2007,06,19,07,06,6.20
2007,06,19,07,07,6.30
2007,06,19,07,08,6.30
2007,06,19,07,09,6.40
2007,06,19,07,10,6.40
2007,06,19,07,11,6.50
2007,06,19,07,12,6.50
2007,06,19,07,13,6.60
2007,06,19,07,14,6.70
2007,06,19,07,15,6.70
2007,06,19,07,16,6.70
2007,06,19,07,17,6.80
2007,06,19,07,18,6.90
2007,06,19,07,19,7.00
2007,06,19,07,20,7.10
2007,06,19,07,21,7.20
2007,06,19,07,22,7.30
2007,06,19,07,23,7.40
2007,06,19,07,24,7.60
2007,06,19,07,25,7.80
2007,06,19,07,26,8.10
2007,06,19,07,27,8.30
2007,06,19,07,28,8.50
2007,06,19,07,29,8.70
2007,06,19,07,30,8.80
2007,06,19,07,31,9.00
2007,06,19,07,32,9.20
2007,06,19,07,33,9.40
2007,06,19,07,34,9.60
2007,06,19,07,35,9.70
2007,06,19,07,36,9.90
2007,06,19,07,37,10.00
2007,06,19,07,38,10.10
2007,06,19,07,39,10.20
2007,06,19,07,40,10.40
2007,06,19,07,41,10.50
2007,06,19,07,42,10.70
2007,06,19,07,43,10.90
2007,06,19,07,44,11.00
2007,06,19,07,45,11.20
2007,06,19,07,46,11.30
2007,06,19,07,47,11.40
2007,06,19,07,48,11.60
2007,06,19,07,49,11.70
2007,06,19,07,50,11.70
2007,06,19,07,51,11.80
2007,06,19,07,52,11.90
2007,06,19,07,53,11.90
2007,06,19,07,54,12.00
2007,06,19,07,55,12.10
2007,06,19,07,56,12.20
2007,06,19,07,57,12.20
2007,06,19,07,58,12.30
2007,06,19,07,59,12.30
2007,06,19,08,00,12.30
2007,06,19,08,01,12.30
2007,06,19,08,02,12.30
2007,06,19,08,03,12.30
2007,06,19,08,04,12.30
2007,06,19,08,05,12.30
2007,06,19,08,06,12.40
2007,06,19,08,07,12.40
2007,06,19,08,08,12.40
2007,06,19,08,09,12.40
2007,06,19,08,10,12.40
2007,06,19,08,11,12.50
2007,06,19,08,12,12.60
2007,06,19,08,13,12.60
2007,06,19,08,14,12.70
2007,06,19,08,15,12.80
2007,06,19,08,16,12.80
2007,06,19,08,17,12.90
2007,06,19,08,18,13.00
2007,06,19,08,19,13.00
2007,06,19,08,20,13.10
2007,06,19,08,21,13.10
2007,06,19,08,22,13.10
2007,06,19,08,23,13.10
2007,06,19,08,24,13.10
2007,06,19,08,25,13.20
2007,06,19,08,26,13.20
2007,06,19,08,27,13.30
2007,06,19,08,28,13.40
2007,06,19,08,29,13.40
2007,06,19,08,30,13.40
2007,06,19,08,31,13.50
2007,06,19,08,32,13.60
2007,06,19,08,33,13.70
2007,06,19,08,34,13.80
2007,06,19,08,35,13.80
2007,06,19,08,36,13.90
2007,06,19,08,37,13.90
2007,06,19,08,38,14.00
2007,06,19,08,39,14.10
2007,06,19,08,40,14.10
2007,06,19,08,41,14.10
2007,06,19,08,42,14.00
2007,06,19,08,43,13.90
2007,06,19,08,44,13.90
2007,06,19,08,45,14.00
2007,06,19,08,46,14.00
2007,06,19,08,47,14.00
2007,06,19,08,48,14.00
2007,06,19,08,49,14.10
2007,06,19,08,50,14.10
2007,06,19,08,51,14.10
2007,06,19,08,52,14.10
2007,06,19,08,53,14.10
2007,06,19,08,54,14.10
2007,06,19,08,55,14.10
2007,06,19,08,56,14.20
2007,06,19,08,57,14.30
2007,06,19,08,58,14.40
2007,06,19,08,59,14.40
2007,06,19,09,00,14.50
2007,06,19,09,01,14.60
2007,06,19,09,02,14.60
2007,06,19,09,03,14.60
2007,06,19,09,04,14.60
2007,06,19,09,05,14.50
2007,06,19,09,06,14.50
2007,06,19,09,07,14.60
2007,06,19,09,08,14.70
2007,06,19,09,09,14.80
2007,06,19,09,10,14.90
2007,06,19,09,11,15.00
2007,06,19,09,12,15.00
2007,06,19,09,13,15.00
2007,06,19,09,14,15.00
2007,06,19,09,15,15.00
2007,06,19,09,16,15.00
2007,06,19,09,17,15.00
2007,06,19,09,18,14.80
2007,06,19,09,19,14.80
2007,06,19,09,20,14.80
2007,06,19,09,21,14.80
2007,06,19,09,22,14.80
2007,06,19,09,23,14.90
2007,06,19,09,24,15.00
2007,06,19,09,25,15.00
2007,06,19,09,26,15.00
2007,06,19,09,27,15.00
2007,06,19,09,28,15.00
2007,06,19,09,29,15.00
2007,06,19,09,30,15.00
2007,06,19,09,31,14.80
2007,06,19,09,32,14.80
2007,06,19,09,33,14.80
2007,06,19,09,34,14.70
2007,06,19,09,35,14.70
2007,06,19,09,36,14.70
2007,06,19,09,37,14.90
2007,06,19,09,38,15.00
2007,06,19,09,39,15.00
2007,06,19,09,40,15.00
2007,06,19,09,41,15.00
2007,06,19,09,42,14.80
2007,06,19,09,43,14.80
2007,06,19,09,44,14.80
2007,06,19,09,45,14.80
2007,06,19,09,46,15.00
2007,06,19,09,47,15.00
2007,06,19,09,48,15.00
2007,06,19,09,49,15.00
2007,06,19,09,50,15.00
2007,06,19,09,51,15.10
2007,06,19,09,52,15.30
2007,06,19,09,53,15.30
2007,06,19,09,54,15.30
2007,06,19,09,55,15.30
2007,06,19,09,56,15.30
2007,06,19,09,57,15.40
2007,06,19,09,58,15.50
2007,06,19,09,59,15.50
2007,06,19,10,00,15.60
2007,06,19,10,01,15.60
2007,06,19,10,02,15.70
2007,06,19,10,03,15.80
2007,06,19,10,04,15.90
2007,06,19,10,05,15.90
2007,06,19,10,06,15.90
2007,06,19,10,07,15.90
2007,06,19,10,08,15.90
2007,06,19,10,09,15.80
2007,06,19,10,10,15.80
2007,06,19,10,11,15.80
2007,06,19,10,12,15.80
2007,06,19,10,13,15.80
2007,06,19,10,14,15.90
2007,06,19,10,15,16.00
2007,06,19,10,16,16.10
2007,06,19,10,17,16.30
2007,06,19,10,18,16.30
2007,06,19,10,19,16.30
2007,06,19,10,20,16.20
2007,06,19,10,21,16.10
2007,06,19,10,22,16.00
2007,06,19,10,23,15.90
2007,06,19,10,24,15.90
2007,06,19,10,25,15.90
2007,06,19,10,26,15.80
2007,06,19,10,27,15.70
2007,06,19,10,28,15.70
2007,06,19,10,29,15.80
2007,06,19,10,30,15.90
2007,06,19,10,31,15.90
2007,06,19,10,32,15.80
2007,06,19,10,33,15.90
2007,06,19,10,34,16.00
2007,06,19,10,35,16.10
2007,06,19,10,36,16.10
2007,06,19,10,37,16.10
2007,06,19,10,38,16.00
2007,06,19,10,39,15.90
2007,06,19,10,40,15.80
2007,06,19,10,41,15.80
2007,06,19,10,42,15.80
2007,06,19,10,43,15.80
2007,06,19,10,44,15.90
2007,06,19,10,45,16.00
2007,06,19,10,46,16.10
2007,06,19,10,47,16.20
2007,06,19,10,48,16.10
2007,06,19,10,49,16.10
2007,06,19,10,50,16.00
2007,06,19,10,51,16.00
2007,06,19,10,52,16.00
2007,06,19,10,53,16.00
2007,06,19,10,54,16.10
2007,06,19,10,55,16.20
2007,06,19,10,56,16.30
2007,06,19,10,57,16.40
2007,06,19,10,58,16.50
2007,06,19,10,59,16.60
2007,06,19,11,00,16.80
2007,06,19,11,01,16.90
2007,06,19,11,02,17.00
2007,06,19,11,03,17.10
2007,06,19,11,04,17.10
2007,06,19,11,05,17.10
2007,06,19,11,06,17.10
2007,06,19,11,07,17.20
2007,06,19,11,08,17.30
2007,06,19,11,09,17.30
2007,06,19,11,10,17.30
2007,06,19,11,11,17.30
2007,06,19,11,12,17.20
2007,06,19,11,13,17.10
2007,06,19,11,14,17.00
2007,06,19,11,15,16.90
2007,06,19,11,16,16.80
2007,06,19,11,17,16.60
2007,06,19,11,18,16.60
2007,06,19,11,19,16.50
2007,06,19,11,20,16.40
2007,06,19,11,21,16.40
2007,06,19,11,22,16.40
2007,06,19,11,23,16.40
2007,06,19,11,24,16.50
2007,06,19,11,25,16.60
2007,06,19,11,26,16.70
2007,06,19,11,27,16.70
2007,06,19,11,28,16.80
2007,06,19,11,29,16.80
2007,06,19,11,30,16.70
2007,06,19,11,31,16.80
2007,06,19,11,32,16.80
2007,06,19,11,33,16.90
2007,06,19,11,34,17.00
2007,06,19,11,35,17.10
2007,06,19,11,36,17.10
2007,06,19,11,37,17.10
2007,06,19,11,38,17.10
2007,06,19,11,39,17.10
2007,06,19,11,40,17.20
2007,06,19,11,41,17.30
2007,06,19,11,42,17.20
2007,06,19,11,43,17.20
2007,06,19,11,44,17.20
2007,06,19,11,45,17.10
2007,06,19,11,46,17.10
2007,06,19,11,47,17.00
2007,06,19,11,48,16.90
2007,06,19,11,49,16.70
2007,06,19,11,50,16.50
2007,06,19,11,51,16.40
2007,06,19,11,52,16.40
2007,06,19,11,53,16.30
2007,06,19,11,54,16.30
2007,06,19,11,55,16.30
2007,06,19,11,56,16.40
2007,06,19,11,57,16.60
2007,06,19,11,58,16.80
2007,06,19,11,59,16.90
2007,06,19,12,00,17.10
2007,06,19,12,01,17.30
2007,06,19,12,02,17.30
2007,06,19,12,03,17.40
2007,06,19,12,04,17.40
2007,06,19,12,05,17.40
2007,06,19,12,06,17.40
2007,06,19,12,07,17.40
2007,06,19,12,08,17.40
2007,06,19,12,09,17.50
2007,06,19,12,10,17.60
2007,06,19,12,11,17.60
2007,06,19,12,12,17.50
2007,06,19,12,13,17.40
2007,06,19,12,14,17.40
2007,06,19,12,15,17.40
2007,06,19,12,16,17.40
2007,06,19,12,17,17.50
2007,06,19,12,18,17.60
2007,06,19,12,19,17.60
2007,06,19,12,20,17.60
2007,06,19,12,21,17.60
2007,06,19,12,22,17.60
2007,06,19,12,23,17.60
2007,06,19,12,24,17.70
2007,06,19,12,25,17.80
2007,06,19,12,26,17.80
2007,06,19,12,27,17.90
2007,06,19,12,28,18.00
2007,06,19,12,29,18.00
2007,06,19,12,30,17.90
2007,06,19,12,31,17.80
2007,06,19,12,32,17.70
2007,06,19,12,33,17.70
2007,06,19,12,34,17.70
2007,06,19,12,35,17.70
2007,06,19,12,36,17.60
2007,06,19,12,37,17.50
2007,06,19,12,38,17.40
2007,06,19,12,39,17.40
2007,06,19,12,40,17.40
2007,06,19,12,41,17.50
2007,06,19,12,42,17.50
2007,06,19,12,43,17.50
2007,06,19,12,44,17.60
2007,06,19,12,45,17.70
2007,06,19,12,46,17.80
2007,06,19,12,47,17.90
2007,06,19,12,48,18.00
2007,06,19,12,49,18.00
2007,06,19,12,50,18.00
2007,06,19,12,51,18.00
2007,06,19,12,52,17.90
2007,06,19,12,53,17.90
2007,06,19,12,54,17.90
2007,06,19,12,55,17.90
2007,06,19,12,56,17.90
2007,06,19,12,57,17.80
2007,06,19,12,58,17.80
2007,06,19,12,59,17.70
2007,06,19,13,00,17.70
2007,06,19,13,01,17.50
2007,06,19,13,02,17.50
2007,06,19,13,03,17.40
2007,06,19,13,04,17.30
2007,06,19,13,05,17.30
2007,06,19,13,06,17.30
2007,06,19,13,07,17.30
2007,06,19,13,08,17.40
2007,06,19,13,09,17.40
2007,06,19,13,10,17.50
2007,06,19,13,11,17.60
2007,06,19,13,12,17.70
2007,06,19,13,13,17.70
2007,06,19,13,14,17.80
2007,06,19,13,15,17.80
2007,06,19,13,16,17.80
2007,06,19,13,17,17.80
2007,06,19,13,18,17.90
2007,06,19,13,19,18.10
2007,06,19,13,20,18.20
2007,06,19,13,21,18.30
2007,06,19,13,22,18.30
2007,06,19,13,23,18.30
2007,06,19,13,24,18.30
2007,06,19,13,25,18.30
2007,06,19,13,26,18.30
2007,06,19,13,27,18.30
2007,06,19,13,28,18.20
2007,06,19,13,29,18.20
2007,06,19,13,30,18.10
2007,06,19,13,31,18.10
2007,06,19,13,32,18.10
2007,06,19,13,33,18.20
2007,06,19,13,34,18.30
2007,06,19,13,35,18.40
2007,06,19,13,36,18.50
2007,06,19,13,37,18.60
2007,06,19,13,38,18.70
2007,06,19,13,39,18.60
2007,06,19,13,40,18.50
2007,06,19,13,41,18.40
2007,06,19,13,42,18.40
2007,06,19,13,43,18.40
2007,06,19,13,44,18.30
2007,06,19,13,45,18.20
2007,06,19,13,46,18.20
2007,06,19,13,47,18.10
2007,06,19,13,48,18.00
2007,06,19,13,49,17.90
2007,06,19,13,50,17.90
2007,06,19,13,51,18.00
2007,06,19,13,52,18.10
2007,06,19,13,53,18.20
2007,06,19,13,54,18.40
2007,06,19,13,55,18.50
2007,06,19,13,56,18.60
2007,06,19,13,57,18.70
2007,06,19,13,58,18.80
2007,06,19,13,59,18.80
2007,06,19,14,00,18.70
2007,06,19,14,01,18.50
2007,06,19,14,02,18.40
2007,06,19,14,03,18.30
2007,06,19,14,04,18.30
2007,06,19,14,05,18.20
2007,06,19,14,06,18.20
2007,06,19,14,07,18.20
2007,06,19,14,08,18.30
2007,06,19,14,09,18.30
2007,06,19,14,10,18.30
2007,06,19,14,11,18.40
2007,06,19,14,12,18.40
2007,06,19,14,13,18.40
2007,06,19,14,14,18.40
2007,06,19,14,15,18.20
2007,06,19,14,16,18.10
2007,06,19,14,17,18.00
2007,06,19,14,18,18.00
2007,06,19,14,19,18.10
2007,06,19,14,20,18.20
2007,06,19,14,21,18.30
2007,06,19,14,22,18.40
2007,06,19,14,23,18.40
2007,06,19,14,24,18.40
2007,06,19,14,25,18.40
2007,06,19,14,26,18.40
2007,06,19,14,27,18.50
2007,06,19,14,28,18.40
2007,06,19,14,29,18.40
2007,06,19,14,30,18.40
2007,06,19,14,31,18.50
2007,06,19,14,32,18.70
2007,06,19,14,33,18.80
2007,06,19,14,34,18.80
2007,06,19,14,35,18.90
2007,06,19,14,36,18.90
2007,06,19,14,37,19.00
2007,06,19,14,38,19.10
2007,06,19,14,39,19.20
2007,06,19,14,40,19.20
2007,06,19,14,41,19.10
2007,06,19,14,42,19.10
2007,06,19,14,43,19.10
2007,06,19,14,44,19.00
2007,06,19,14,45,18.90
2007,06,19,14,46,18.90
2007,06,19,14,47,19.00
2007,06,19,14,48,19.10
2007,06,19,14,49,19.20
2007,06,19,14,50,19.20
2007,06,19,14,51,19.30
2007,06,19,14,52,19.30
2007,06,19,14,53,19.20
2007,06,19,14,54,19.10
2007,06,19,14,55,18.90
2007,06,19,14,56,18.90
2007,06,19,14,57,18.90
2007,06,19,14,58,19.00
2007,06,19,14,59,19.00
2007,06,19,15,00,19.10
2007,06,19,15,01,19.20
2007,06,19,15,02,19.10
2007,06,19,15,03,19.00
2007,06,19,15,04,18.80
2007,06,19,15,05,18.70
2007,06,19,15,06,18.60
2007,06,19,15,07,18.60
2007,06,19,15,08,18.60
2007,06,19,15,09,18.70
2007,06,19,15,10,18.80
2007,06,19,15,11,18.80
2007,06,19,15,12,18.80
2007,06,19,15,13,18.80
2007,06,19,15,14,18.70
2007,06,19,15,15,18.70
2007,06,19,15,16,18.70
2007,06,19,15,17,18.70
2007,06,19,15,18,18.70
2007,06,19,15,19,18.80
2007,06,19,15,20,18.90
2007,06,19,15,21,19.00
2007,06,19,15,22,19.10
2007,06,19,15,23,19.10
2007,06,19,15,24,19.10
2007,06,19,15,25,19.00
2007,06,19,15,26,19.00
2007,06,19,15,27,19.00
2007,06,19,15,28,18.90
2007,06,19,15,29,18.90
2007,06,19,15,30,18.90
2007,06,19,15,31,18.80
2007,06,19,15,32,18.70
2007,06,19,15,33,18.70
2007,06,19,15,34,18.70
2007,06,19,15,35,18.70
2007,06,19,15,36,18.60
2007,06,19,15,37,18.50
2007,06,19,15,38,18.40
2007,06,19,15,39,18.40
2007,06,19,15,40,18.30
2007,06,19,15,41,18.30
2007,06,19,15,42,18.30
2007,06,19,15,43,18.30
2007,06,19,15,44,18.40
2007,06,19,15,45,18.50
2007,06,19,15,46,18.50
2007,06,19,15,47,18.60
2007,06,19,15,48,18.70
2007,06,19,15,49,18.80
2007,06,19,15,50,18.90
2007,06,19,15,51,18.90
2007,06,19,15,52,18.90
2007,06,19,15,53,18.80
2007,06,19,15,54,18.80
2007,06,19,15,55,18.70
2007,06,19,15,56,18.50
2007,06,19,15,57,18.30
2007,06,19,15,58,18.30
2007,06,19,15,59,18.30
2007,06,19,16,00,18.30
2007,06,19,16,01,18.20
2007,06,19,16,02,18.30
2007,06,19,16,03,18.30
2007,06,19,16,04,18.30
2007,06,19,16,05,18.30
2007,06,19,16,06,18.40
2007,06,19,16,07,18.30
2007,06,19,16,08,18.30
2007,06,19,16,09,18.20
2007,06,19,16,10,18.10
2007,06,19,16,11,18.10
2007,06,19,16,12,18.10
2007,06,19,16,13,18.10
2007,06,19,16,14,18.10
2007,06,19,16,15,18.10
2007,06,19,16,16,18.20
2007,06,19,16,17,18.20
2007,06,19,16,18,18.20
2007,06,19,16,19,18.20
2007,06,19,16,20,18.30
2007,06,19,16,21,18.30
2007,06,19,16,22,18.30
2007,06,19,16,23,18.30
2007,06,19,16,24,18.30
2007,06,19,16,25,18.30
2007,06,19,16,26,18.20
2007,06,19,16,27,18.20
2007,06,19,16,28,18.20
2007,06,19,16,29,18.10
2007,06,19,16,30,18.10
2007,06,19,16,31,18.10
2007,06,19,16,32,18.10
2007,06,19,16,33,18.10
2007,06,19,16,34,18.00
2007,06,19,16,35,18.00
2007,06,19,16,36,17.90
2007,06,19,16,37,18.00
2007,06,19,16,38,18.00
2007,06,19,16,39,18.00
2007,06,19,16,40,18.10
2007,06,19,16,41,18.10
2007,06,19,16,42,18.10
2007,06,19,16,43,18.20
2007,06,19,16,44,18.20
2007,06,19,16,45,18.20
2007,06,19,16,46,18.20
2007,06,19,16,47,18.20
2007,06,19,16,48,18.20
2007,06,19,16,49,18.20
2007,06,19,16,50,18.20
2007,06,19,16,51,18.10
2007,06,19,16,52,18.20
2007,06,19,16,53,18.20
2007,06,19,16,54,18.20
2007,06,19,16,55,18.20
2007,06,19,16,56,18.20
2007,06,19,16,57,18.20
2007,06,19,16,58,18.20
2007,06,19,16,59,18.20
2007,06,19,17,00,18.20
2007,06,19,17,01,18.20
2007,06,19,17,02,18.20
2007,06,19,17,03,18.20
2007,06,19,17,04,18.20
2007,06,19,17,05,18.30
2007,06,19,17,06,18.30
2007,06,19,17,07,18.30
2007,06,19,17,08,18.30
2007,06,19,17,09,18.30
2007,06,19,17,10,18.40
2007,06,19,17,11,18.40
2007,06,19,17,12,18.40
2007,06,19,17,13,18.50
2007,06,19,17,14,18.50
2007,06,19,17,15,18.60
2007,06,19,17,16,18.60
2007,06,19,17,17,18.60
2007,06,19,17,18,18.70
2007,06,19,17,19,18.70
2007,06,19,17,20,18.80
2007,06,19,17,21,18.80
2007,06,19,17,22,18.80
2007,06,19,17,23,18.80
2007,06,19,17,24,18.80
2007,06,19,17,25,18.80
2007,06,19,17,26,18.80
2007,06,19,17,27,18.90
2007,06,19,17,28,18.90
2007,06,19,17,29,19.00
2007,06,19,17,30,19.00
2007,06,19,17,31,19.10
2007,06,19,17,32,19.10
2007,06,19,17,33,19.10
2007,06,19,17,34,19.10
2007,06,19,17,35,19.10
2007,06,19,17,36,19.10
2007,06,19,17,37,19.10
2007,06,19,17,38,19.10
2007,06,19,17,39,19.20